SL-24 DEB

Satellite information

Favourite Embed

Satellite Type and Status

DEBRISIN ORBIT

Key statistics

Satellite SL-24 DEB at a glance.

Uptime

6717

Days in orbit

Revolutions

≈ 14.8

Per day

Orbit

SSO

Sun Synchronous Orbit

Inclination

97.8

Latest

Satellite identification and parameters

Extended collection of information and parameters for SL-24 DEB.

Object identification

Identified? True

Debris? True

Object name: SL-24 DEB

International designator: 2007-012D

Object number (NORAD): 31120

Object ID (CCSDS): 31120

Country: COMMONWEALTH OF INDEPENDENT STATES (CIS)

Current information (Y/N): Y

RCS size: MEDIUM

Orbital parameters

Period: 97.05 minutes

Inclination: 97.7754 deg

SMA: 6995.598 km

Apoapsis: 621.395 km

Periapsis: 613.531 km

RAAN: 210.5575 deg

Eccentricy: 0.00056208

Argument of periapsis: 336.6896 deg

Mean anomaly: 23.4063 deg

Mean motion: 14.83766321 rev/day

Mean motion (dot): 0.00002929 rev/day2

B* drag term: 0.00036000842 1/REarth

Two-line elements (TLE)

Creation date: Sept. 4, 2025, 10:13 a.m.

Reference frame: TEME

Reference center: EARTH

Epoch: Sept. 4, 2025, 3:35 a.m. UTC

TLE line 0: 0 SL-24 DEB

TLE line 1: 1 31120U 07012D 25247.14945383 .00002929 00000-0 36001-3 0 9999

TLE line 2: 2 31120 97.7754 210.5575 0005621 336.6896 23.4063 14.83766321990072

Live tracking on map

Real-time ground track for satellite SL-24 DEB.

In-orbit conjunctions

A list of the most updated potential collisions computed for object SL-24 DEB.

Target Orbit TCA Probability of collision Miss distance Type
SL-14 R/B LEO 2024-12-18 23:49:19 0.0001816549 284.0 (m) ROCKET BODY
SL-14 R/B LEO 2024-07-23 10:48:42 0.0001198682 112.0 (m) ROCKET BODY

Associated space launch

Rideshare mission with Egyptian and Saudi Arabian Earth observation satellites as well as 14 American cubesats

SL-24 DEB was lifted into orbit during the mission ‘Dnepr | EgyptSat 1 & Saudisat 3’, on board a Dnepr space rocket.

The launch took place on April 17, 2007, 6:46 a.m. from 109/95.

For more information about the launch, click the button.

Launch to space Dnepr | EgyptSat 1 & Saudisat 3
Dnepr | EgyptSat 1 & Saudisat 3

Agency: N/A

Status: Launch Successful

Launch date: April 17, 2007, 6:46 a.m. UTC

Rocket: Dnepr

Launch pad: 109/95

Location: Baikonur Cosmodrome, Republic of Kazakhstan

...

Latest news about this satellite

There are no fresh news available about this satellite. Check back as we update our databases every day.


Newsletter sign-up

Weekly statistics, charts and insights to help you stay on top of the space industry.